Regional Weather Roundup
Issued by NWS Boston, MA

Current Version | Previous Version | Text Only | Print | Product List | Glossary On
Versions: 1 2 3 4 5 6 7 8 9 10 11 12 13 14 15 16 17 18 19 20 21 22 23 24 25 26 27
000 ASUS41 KBOX 241410 RWRBOX REGIONAL WEATHER ROUNDUP NATIONAL WEATHER SERVICE TAUNTON MA 1000 AM EDT FRI OCT 24 2014 NOTE: "FAIR" INDICATES FEW OR NO CLOUDS BELOW 12,000 FEET WITH NO SIGNIFICANT WEATHER AND/OR OBSTRUCTIONS TO VISIBILITY. THE FOLLOWING OBSERVATION LOCATIONS DO NOT REPORT PRESENT WEATHER...PROVINCETOWN... SMITHFIELD...BLOCK ISLAND...KEENE...AND OXFORD. MAZALL-241500- EASTERN MASSACHUSETTS CITY SKY/WX TMP DP RH WIND PRES REMARKS BOSTON CLOUDY 49 47 93 NW12 29.71R BEVERLY CLOUDY 50 47 89 N10 29.70R FOG LAWRENCE CLOUDY 50 47 89 NW7 29.74R BEDFORD CLOUDY 50 46 86 NW9 29.71R BLUE HILL N/A 47 47 100 NW14 29.70R NORWOOD CLOUDY 51 48 89 NW8 29.71R MARSHFIELD NOT AVBL PLYMOUTH CLOUDY 51 49 92 N13 29.69R TAUNTON CLOUDY 51 48 89 VRB7G17 29.70R NEW BEDFORD CLOUDY 51 49 92 NW7 29.68S $$ MAZALL-241500- CAPE COD AND THE ISLANDS CITY SKY/WX TMP DP RH WIND PRES REMARKS FALMOUTH CLOUDY 50 48 93 N12 29.68R HYANNIS CLOUDY 52 49 89 N17G24 29.65R CHATHAM CLOUDY 49 49 100 NW12G23 29.65S FOG PROVINCETOWN CLOUDY 50 -2 11 N18G25 29.68R NANTUCKET LGT RAIN 52 49 89 NW21G32 29.65R MARTHAS VNYRD CLOUDY 52 48 86 N14 29.68R $$ MAZALL-241500- CENTRAL AND WESTERN MASSACHUSETTS CITY SKY/WX TMP DP RH WIND PRES REMARKS WORCESTER CLOUDY 45 42 89 NW15G22 29.72S FITCHBURG CLOUDY 50 44 80 NW10 29.74S ORANGE CLOUDY 46 42 86 NW8 29.77R SPRINGFIELD CLOUDY 49 45 87 N7 29.77R WESTFIELD CLOUDY 50 43 77 NW9G20 29.77R NORTH ADAMS CLOUDY 44 40 85 W15 29.82S PITTSFIELD CLOUDY 43 40 89 NW7 29.80R $$ RIZALL-241500- RHODE ISLAND CITY SKY/WX TMP DP RH WIND PRES REMARKS PROVIDENCE CLOUDY 52 46 80 NW12 29.72R NEWPORT CLOUDY 53 47 79 NW14 29.70S BLOCK ISLAND CLOUDY 52 45 76 NW12G17 29.72S SMITHFIELD CLOUDY 48 39 71 NW8 29.71S WESTERLY LGT RAIN 50 47 89 NW6 29.74R $$ CTZALL-241500- CONNECTICUT CITY SKY/WX TMP DP RH WIND PRES REMARKS BRADLEY INTL CLOUDY 51 44 77 NW9 29.76S HARTFORD CLOUDY 51 45 79 MISG 29.77S BRIDGEPORT CLOUDY 51 47 86 NW14G21 29.79S DANBURY CLOUDY 49 43 80 NW9 29.82R GROTON CLOUDY 49 46 90 N12G18 29.74S NEW HAVEN CLOUDY 52 47 83 NW9 29.77F CHESTER NOT AVBL MERIDEN CLOUDY 50 44 80 NW14 29.78R WILLIMANTIC CLOUDY 50 45 83 NW10 29.76R OXFORD CLOUDY 46 41 81 NW9G17 29.78S $$ MEZ002-015-021-024-NHZ003-005-008-011-012-014-VTZ005-008-241500- NORTHERN NEW ENGLAND CITY SKY/WX TMP DP RH WIND PRES REMARKS PORTLAND ME LGT RAIN 50 46 86 N9 29.71R FOG BANGOR ME DRIZZLE 45 43 93 N15 29.69R FOG CONCORD NH CLOUDY 49 45 86 NW10 29.74R MANCHESTER NH CLOUDY 50 43 77 NW13 29.72R NASHUA NH CLOUDY 49 46 89 NW13 29.74R PORTSMOUTH NH DRIZZLE 50 48 92 NW13 29.70S FOG JAFFREY NH CLOUDY 45 41 86 VRB6 29.75R KEENE NH CLOUDY 46 36 66 N9 29.77S BURLINGTON VT CLOUDY 43 40 89 N8 29.87S FOG MT. WASHINGTON FOG 34 34 100 NE25 N/A VSB 1/8 WCI 21 $$ NYZ052-076-241500- EASTERN NEW YORK CITY SKY/WX TMP DP RH WIND PRES REMARKS ALBANY DRIZZLE 46 44 93 NE6 29.87R FOG NEW YORK CITY CLOUDY 54 43 66 NW14 29.82S $$ ANZALL-241500- MARINE OBSERVATIONS STATION/POSITION TIME TEMP WIND PRES VSBY WAVE AIR SEA DIR/SP/G HT/PER (UTC) (F) (DEG/KT/KT) (MB) (MI) (FT/S) BOSTON BUOY NOT AVBL BUZZARDS BAY NOT AVBL NANTUCKET SOUND NOT AVBL MASS BAY-STELLWA NOT AVBL ISLE OF SHOALS NOT AVBL S OF BLOCK IS NOT AVBL $$ ......................KEY......................... SKY/WX - SKY CONDITION/PRESENT WEATHER TMP - TEMPERATURE IN FAHRENHEIT DWPT - DEWPOINT IN FAHRENHEIT RH - RELATIVE HUMIDITY IN PERCENT WIND - DIRECTION AND SPEED IN MPH PRES - MEAN SEA LEVEL PRESSURE IN INCHES OF HG WCI - WIND CHILL INDEX VSB - VISIBILITY IN MILES HX - HEAT INDEX TC - TEMPERATURE IN CELSIUS VRB - VARIABLE WIND DIRECTION N/A - NOT AVAILABLE

USA.gov is the U.S. government's official web portal to all federal, state and local government web resources and services.